Hourly Weather Allondrelle-la-Malmaison

Today, 25 February, Thursday

Time Temperature Precipitation Wind Pressure Humidity
00:00 +10°C° 0 mm 1 mps 744 mmHg 85%
01:00 +8°C° 0 mm 2 mps 744 mmHg 85%
02:00 +8°C° 0 mm 2 mps 744 mmHg 85%
03:00 +8°C° 0 mm 2 mps 744 mmHg 85%
04:00 +8°C° 0 mm 1 mps 744 mmHg 86%
05:00 +8°C° 0 mm 1 mps 744 mmHg 87%
06:00 +8°C° 0 mm 1 mps 744 mmHg 88%
07:00 +9°C° 0 mm 1 mps 744 mmHg 85%
08:00 +10°C° 0 mm 1 mps 745 mmHg 81%
09:00 +12°C° 0 mm 1 mps 745 mmHg 78%
10:00 +13°C° 0 mm 2 mps 745 mmHg 73%
11:00 +14°C° 0 mm 2 mps 745 mmHg 68%
12:00 +16°C° 0 mm 2 mps 745 mmHg 63%
13:00 +16°C° 0 mm 2 mps 745 mmHg 64%
14:00 +16°C° 0 mm 2 mps 744 mmHg 64%
15:00 +16°C° 0 mm 2 mps 744 mmHg 65%
16:00 +14°C° 0 mm 1 mps 744 mmHg 71%
17:00 +13°C° 0 mm 1 mps 744 mmHg 76%
18:00 +11°C° 0 mm 1 mps 744 mmHg 82%
19:00 +11°C° 0 mm 1 mps 745 mmHg 83%
20:00 +10°C° 0 mm 1 mps 745 mmHg 84%
21:00 +10°C° 0 mm 1 mps 745 mmHg 85%
22:00 +9°C° 0 mm 1 mps 745 mmHg 86%
23:00 +9°C° 0 mm 1 mps 745 mmHg 88%

Tomorrow, 26 February, Friday

Time Temperature Precipitation Wind Pressure Humidity
00:00 +8°C° 0 mm 1 mps 746 mmHg 89%
01:00 +8°C° 0 mm 1 mps 745 mmHg 91%
02:00 +8°C° 0 mm 1 mps 745 mmHg 92%
03:00 +8°C° 0 mm 1 mps 745 mmHg 93%
04:00 +8°C° 0 mm 1 mps 745 mmHg 94%
05:00 +7°C° 0 mm 0 mps 745 mmHg 95%
06:00 +7°C° 0 mm 0 mps 746 mmHg 96%
07:00 +8°C° 0.1 mm 0 mps 746 mmHg 94%
08:00 +9°C° 0.1 mm 1 mps 746 mmHg 92%
09:00 +10°C° 0.1 mm 1 mps 746 mmHg 91%
10:00 +10°C° 0.6 mm 1 mps 747 mmHg 90%
11:00 +9°C° 0.6 mm 2 mps 747 mmHg 90%
12:00 +9°C° 0.6 mm 2 mps 747 mmHg 89%
13:00 +9°C° 0.4 mm 3 mps 746 mmHg 89%
14:00 +9°C° 0.4 mm 3 mps 746 mmHg 89%
15:00 +8°C° 0.4 mm 4 mps 746 mmHg 89%
16:00 +8°C° 0.1 mm 4 mps 746 mmHg 87%
17:00 +7°C° 0.1 mm 5 mps 746 mmHg 86%
18:00 +7°C° 0.1 mm 5 mps 746 mmHg 84%
19:00 +7°C° 0 mm 5 mps 747 mmHg 81%
20:00 +6°C° 0 mm 5 mps 747 mmHg 78%
21:00 +6°C° 0 mm 5 mps 747 mmHg 75%
22:00 +5°C° 0.1 mm 5 mps 747 mmHg 77%
23:00 +5°C° 0.1 mm 5 mps 748 mmHg 79%

Day after tomorrow, 27 February, Saturday

Time Temperature Precipitation Wind Pressure Humidity
00:00 +4°C° 0.1 mm 4 mps 748 mmHg 81%
01:00 +4°C° 0 mm 4 mps 748 mmHg 82%
02:00 +3°C° 0 mm 4 mps 748 mmHg 84%
03:00 +1°C° 0 mm 4 mps 748 mmHg 85%
04:00 +1°C° 0 mm 4 mps 748 mmHg 86%
05:00 0°C° 0 mm 4 mps 748 mmHg 86%
06:00 0°C° 0 mm 4 mps 749 mmHg 86%
07:00 +1°C° 0 mm 4 mps 749 mmHg 80%
08:00 +2°C° 0 mm 5 mps 749 mmHg 75%
09:00 +3°C° 0 mm 5 mps 750 mmHg 69%
10:00 +5°C° 0 mm 5 mps 750 mmHg 65%
11:00 +6°C° 0 mm 5 mps 750 mmHg 62%
12:00 +7°C° 0 mm 5 mps 750 mmHg 59%
13:00 +7°C° 0 mm 5 mps 749 mmHg 59%
14:00 +8°C° 0 mm 5 mps 749 mmHg 59%
15:00 +8°C° 0 mm 5 mps 749 mmHg 59%
16:00 +6°C° 0 mm 4 mps 748 mmHg 64%
17:00 +5°C° 0 mm 4 mps 748 mmHg 70%
18:00 +4°C° 0 mm 3 mps 748 mmHg 75%
19:00 +3°C° 0 mm 3 mps 748 mmHg 77%
20:00 +3°C° 0 mm 3 mps 748 mmHg 78%
21:00 +1°C° 0 mm 4 mps 749 mmHg 80%
22:00 +1°C° 0 mm 4 mps 748 mmHg 82%
23:00 +1°C° 0 mm 4 mps 748 mmHg 85%

28 February, Sunday

Time Temperature Precipitation Wind Pressure Humidity
00:00 0°C° 0 mm 4 mps 748 mmHg 87%
01:00 0°C° 0 mm 4 mps 748 mmHg 88%
02:00 0°C° 0 mm 4 mps 748 mmHg 89%
03:00 -1°C° 0 mm 4 mps 748 mmHg 89%
04:00 -1°C° 0 mm 4 mps 747 mmHg 90%
05:00 -1°C° 0 mm 4 mps 747 mmHg 90%
06:00 -1°C° 0 mm 4 mps 747 mmHg 91%
07:00 0°C° 0 mm 4 mps 747 mmHg 85%
08:00 +1°C° 0 mm 5 mps 747 mmHg 80%
09:00 +2°C° 0 mm 5 mps 747 mmHg 75%
10:00 +5°C° 0 mm 5 mps 747 mmHg 69%
11:00 +6°C° 0 mm 5 mps 747 mmHg 64%
12:00 +7°C° 0 mm 5 mps 747 mmHg 59%
13:00 +8°C° 0 mm 5 mps 746 mmHg 58%
14:00 +8°C° 0 mm 5 mps 746 mmHg 56%
15:00 +8°C° 0 mm 5 mps 746 mmHg 55%
16:00 +7°C° 0 mm 5 mps 746 mmHg 59%
17:00 +5°C° 0 mm 5 mps 746 mmHg 64%
18:00 +4°C° 0 mm 4 mps 745 mmHg 68%
19:00 +3°C° 0 mm 4 mps 746 mmHg 68%
20:00 +3°C° 0 mm 4 mps 746 mmHg 69%
21:00 +3°C° 0 mm 4 mps 746 mmHg 69%
22:00 +1°C° 0 mm 4 mps 746 mmHg 70%
23:00 +1°C° 0 mm 4 mps 746 mmHg 71%

1 March, Monday

Time Temperature Precipitation Wind Pressure Humidity
00:00 0°C° 0 mm 4 mps 746 mmHg 73%
01:00 0°C° 0 mm 4 mps 746 mmHg 74%
02:00 0°C° 0 mm 4 mps 746 mmHg 75%
03:00 0°C° 0 mm 4 mps 745 mmHg 76%
04:00 -1°C° 0 mm 4 mps 745 mmHg 77%
05:00 -1°C° 0 mm 4 mps 746 mmHg 78%
06:00 -1°C° 0 mm 4 mps 746 mmHg 79%
07:00 0°C° 0 mm 4 mps 746 mmHg 75%
08:00 +1°C° 0 mm 4 mps 746 mmHg 71%
09:00 +2°C° 0 mm 5 mps 746 mmHg 67%
10:00 +5°C° 0 mm 4 mps 746 mmHg 64%
11:00 +6°C° 0 mm 4 mps 746 mmHg 62%
12:00 +7°C° 0 mm 4 mps 746 mmHg 59%
13:00 +9°C° 0 mm 3 mps 746 mmHg 59%
14:00 +9°C° 0 mm 3 mps 746 mmHg 59%
15:00 +10°C° 0 mm 3 mps 745 mmHg 59%
16:00 +8°C° 0 mm 3 mps 745 mmHg 62%
17:00 +7°C° 0 mm 3 mps 745 mmHg 66%
18:00 +4°C° 0 mm 3 mps 745 mmHg 70%
19:00 +4°C° 0 mm 3 mps 745 mmHg 72%
20:00 +3°C° 0 mm 3 mps 746 mmHg 73%
21:00 +3°C° 0 mm 3 mps 746 mmHg 75%
22:00 +2°C° 0 mm 3 mps 746 mmHg 77%
23:00 +2°C° 0 mm 3 mps 746 mmHg 79%

2 March, Tuesday

Time Temperature Precipitation Wind Pressure Humidity
00:00 +1°C° 0 mm 3 mps 746 mmHg 81%
01:00 +2°C° 0 mm 2 mps 746 mmHg 82%
02:00 +2°C° 0 mm 2 mps 745 mmHg 84%
03:00 +1°C° 0 mm 2 mps 745 mmHg 85%
04:00 +1°C° 0 mm 2 mps 745 mmHg 86%
05:00 +1°C° 0 mm 2 mps 746 mmHg 87%
06:00 +1°C° 0 mm 2 mps 746 mmHg 88%
07:00 +2°C° 0 mm 2 mps 746 mmHg 83%
08:00 +3°C° 0 mm 2 mps 746 mmHg 78%
09:00 +5°C° 0 mm 2 mps 746 mmHg 73%
10:00 +7°C° 0 mm 2 mps 746 mmHg 69%
11:00 +8°C° 0 mm 2 mps 746 mmHg 65%
12:00 +10°C° 0 mm 2 mps 746 mmHg 61%
13:00 +11°C° 0 mm 1 mps 746 mmHg 61%
14:00 +12°C° 0 mm 1 mps 746 mmHg 60%
15:00 +12°C° 0 mm 1 mps 746 mmHg 60%
16:00 +11°C° 0 mm 1 mps 746 mmHg 67%
17:00 +9°C° 0 mm 1 mps 746 mmHg 74%
18:00 +7°C° 0 mm 1 mps 746 mmHg 80%
19:00 +7°C° 0 mm 1 mps 746 mmHg 81%
20:00 +5°C° 0 mm 0 mps 746 mmHg 82%
21:00 +5°C° 0 mm 0 mps 746 mmHg 83%
22:00 +5°C° 0 mm 0 mps 746 mmHg 83%
23:00 +5°C° 0 mm 0 mps 746 mmHg 83%
Show more